国际通讯卫星 907星 (INTELSAT 907 (IS-907))

导读 | 豆包AI

INTELSAT 907是国际通信卫星组织(ITSO)于2003年2月15日发射的通信卫星,属于Intelsat-9系列卫星,由Space Systems/Loral公司建造,是Intelsat-7系列卫星的改进增强版本,替代了老旧的Intelsat-6系列卫星。该卫星可提供覆盖全球的增强型语音、视频和数据传输服务,为全球商业通信、跨区域互联提供可靠的空间基础设施支撑,推动了全球卫星通信能力升级。

基本信息
目录编号:
27683
目录名称:
INTELSAT 907
国际标识:
2003-007A
轨道中心:
EARTH
卫星名称:
国际通讯卫星 907星
卫星全名:
国际通讯卫星 907星 (INTELSAT 907 (IS-907))
卫星状态:
在轨 (已飞行8449 天)
发射日期:
2003-02-15 UTC
国别 :
(ITSO)
星等 :
--
轨道信息
数据来源 国际轨道数据 AOE轨道数据
星历时间 2026-04-04T00:23:17+0800
10小时前
查看轨道信息
2026-04-03T04:00:00+0800
1天前
查看轨道信息
半长轴 42479.4km 42479.6km
偏心率 0.000407 0.0004079
轨道倾角 5.550° 5.548°
近地点辐角 106.892° 109.213°
升交点赤经 73.456° 73.466°
平近点角 286.845° 341.257°
近地点 36083.973km 36084.135km
远地点 36118.553km 36118.791km
周期 1452.203分钟 1452.213分钟
每日圈数 0.991597 0.99159
详细信息
卫星平台:
SSL 1300HL
平衡模式:
三轴稳定
覆盖范围:
全球
运营商:
国际卫星通信公司
运营商所在国:
美国
制造商(研发单位):
劳拉空间系统公司
制造商所在国:
美国
使用方式:
暂无
卫星简介
从1965年4月至1984年3月,国际通信卫星组织发射了5代、6种不同性能的卫星共计35颗,除6颗卫星因运载火箭和远地点发动机故障而发射失败外,其余29颗卫星均被送到了预定的静止轨道位置。1984年8月前后,国际通信卫星组织利用部署在大西洋、太平洋、印度洋上空的15颗国际通信卫星,为遍布世界各地170多个国家或地区提供电话、电传、电报、电视和数据传输等电信业务;该卫星已退役。
2D轨道图
3D轨道图
轨道高度分析图
轨道倾角分析图
轨道综合分析图
查看轨道综合分析图